User: anonymous
Location: Unspecified
(0.0000°N, 0.0000°E)
Time: 09:06:23
(UTC+00:00)
Language:

ETS 8 - Orbit

View from above orbital plane
View from above orbital plane
View from above satellite
View from above satellite

Ground track
Ground track

The orbit data is extracted from the following two-line orbital elements,

1 29656U 06059A   14109.69356310 -.00000249  00000-0  00000+0 0  3816
2 29656 003.4036 067.1481 0006311 322.3827 213.6034 01.00271108 26930
Epoch (UTC): 19 April 2014 16:38:43
Eccentricity: 0.0006311
inclination: 3.4036°
perigee height: 35760 km
apogee height: 35813 km
right ascension of ascending node: 67.1481°
argument of perigee: 322.3827°
revolutions per day: 1.00271108
mean anomaly at epoch: 213.6034°
orbit number at epoch: 2693

The dashed part of the orbit path shows where the satellite is in the earth's shadow,  

DLR